KCVG Airport Diagram

We have created a template for each of the higher traffic airports in the vZID airspace. They include KCMH, KCRW, KCVG, KDAY, KIND, KLEX and KSDF. You wil find usefull information including the airport diagram, weather, and specific airport procedures.

KCVG Weather

[Source: ADDS]
METAR
KCVG 172152Z 26012G16KT 10SM FEW027TCU FEW150 SCT250 30/23 A2992 RMK AO2 SLP121 TCU N-E DSNT NW T03000233 $ =
KCVG 172056Z 1721/1824 28010KT P6SM VCSH SCT035 BKN050 FM180100 28005KT P6SM BKN050 FM181000 25003KT 2SM BR SCT015 FM181200 22005KT P6SM SCT025 FM181500 21006KT P6SM SCT040
TAF
KCVG 172056Z 1721/1824 28010KT P6SM VCSH SCT035 BKN050 FM180100 28005KT P6SM BKN050 FM181000 25003KT 2SM BR SCT015 FM181200 22005KT P6SM SCT025 FM181500 21006KT P6SM SCT040 =

KCVG Operations

Calm Wind Configuration is Landing runways 36C and 36R, departing runway 27.

You can expect  this configuration up to and including a 10 knot tailwind.

The Center runway is the old 18R/36L in the default scenery. Additionally, runway 9/27 was lengthened to 12,000 feet when the west runway (18R/36L) was added.

Where parallel taxiways exist, inner taxiway is used by inbound traffic and outer taxiway is used by outbound traffic.

FDX & UPS use the ramp area at Terminal 1.

New Scenery is available at FlightSim.com.

On initial contact, arriving aircraft should notify the the controller which scenery they have.

 

JSN Epic template designed by JoomlaShine.com